Orbital Elements
Epoch 2013 May 28.0 TT = JDT 2456440.5
T 2013 May 9.32260 TT MPC
q 1.5086427 (2000.0) P Q
z +0.0017618 Peri. 205.77632 -0.14643666 -0.29114459
+/-0.0000006 Node 270.30133 +0.98903171 -0.06173899
e 0.9973421 Incl. 70.98237 -0.01930226 -0.95468483
From 2048 observations 2012 June 1-2013 Oct. 12, mean residual 0".5.
|